Powrót do katalogu

DELTA 1 DEB

AktywnyPO
NORAD 26832·DEBRIS·🇺🇸 United States

Wystrzelony Jun 12, 1975 z Vandenberg Space Force Base

Loading…

Następne Przeloty (najbliższe 24 godziny)

TLE

ŚwieżeSource: Space-Track

Epoka: Sep 11, 2026, 19:47 UTC

1 26832U 75052KL  26254.82483587  .00000125  00000-0  78203-3 0  9995
2 26832  99.6327 206.5352 0621985  35.8639 354.3651 12.21546532590762

Śledź DELTA 1 DEB w czasie rzeczywistym z AllMySat

Download on the App Store